Location: Le Domaine
(47.0333°N, 76.5361°W)
Time: 18:21:20
(UTC-05:00)

S-56A Canister/Altair - Pass Details

Date: 20 November 2019
Orbit: 633 x 2499 km, 38.9° (Epoch: 07 December)

Event Time Altitude Azimuth Distance (km) Brightness Sun altitude
Rises 19:50:53 0° 265° (W) 4,525 12.5 -34.5°
Reaches altitude 10° 19:54:36 10° 259° (W) 3,229 11.4 -35.1°
Enters shadow 20:00:02 34° 221° (SW) 1,596 9.2 -36.0°
Maximum altitude 20:01:24 37° 195° (SSW) 1,420 - -36.3°
Drops below altitude 10° 20:06:18 10° 128° (SE) 2,309 - -37.1°
Sets 20:08:32 0° 120° (ESE) 3,103 - -37.5°
